Regional Weather Roundup
Issued by NWS

Home | Current Version | Previous Version | Graphics & Text | Print | Product List | Glossary On
Versions: 1 2 3 4 5 6 7 8 9 10 11 12 13 14 15 16 17 18 19 20 21 22 23 24 25 26 27 28 29 30 31 32 33 34 35 36 37 38 39 40 41 42 43 44 45 46 47 48 49 50
687
ASUS43 KLSX 210407
RWRMO

WEATHER SUMMARY FOR MISSOURI
NATIONAL WEATHER SERVICE SPRINGFIELD MO
1100 PM CDT SUN AUG 20 2017

NOTE: "FAIR" INDICATES FEW OR NO CLOUDS BELOW 12,000 FEET WITH NO
       SIGNIFICANT WEATHER AND/OR OBSTRUCTIONS TO VISIBILITY.
       CURRENT SKY AND/OR WEATHER CONDITIONS ARE NOT AVAILABLE FOR
       CHILLICOTHE AND FARMINGTON.

MOZ001>031-035>038-043-044-053-054-210500-
...NORTHERN AND WESTERN MISSOURI...

CITY           SKY/WX    TMP DP  RH WIND       PRES   REMARKS
KANSAS CTY INT MOCLDY    79  71  76 S13       30.02R
KANSAS C DTWN  CLOUDY    82  68  62 S13G20    30.02R
LEE`S SUMMIT   CLOUDY    77  68  73 S13       30.05R
ST JOSEPH      PTCLDY    80  76  87 S9        30.00R
CHILLICOTHE      N/A     75  70  84 SE6       30.04R
KIRKSVILLE     CLOUDY    68  65  90 CALM      30.05S

$$
MOZ066>068-077>081-088>096-101>105-210500-
...SOUTHWEST MISSOURI...

CITY           SKY/WX    TMP DP  RH WIND       PRES   REMARKS
SPRINGFIELD    PTCLDY    70  69  97 E5        30.10S
JOPLIN         CLOUDY    78  68  71 SE14      30.08S
BRANSON          N/A     75  72  88 CALM      30.13F

$$
MOZ032>034-039>042-045>050-055>058-069>072-210500-
...CENTRAL MISSOURI...

CITY           SKY/WX    TMP DP  RH WIND       PRES   REMARKS
COLUMBIA       CLOUDY    78  73  84 SW3       30.05R
JEFFERSON CITY CLOUDY    81  75  82 CALM      30.03R
ROLLA          CLOUDY    76  72  87 S7        30.08R
SEDALIA        MOCLDY    76  65  68 SW12      30.04R
WHITEMAN AFB   CLOUDY    74  67  79 SW15      30.02S
WARRENSBURG    PTCLDY    73  63  68 S12G17    30.03S
OSAGE BEACH    PTCLDY    76  68  76 VRB5      30.06R

$$
MOZ051-052-059>065-210500-
...EAST CENTRAL MISSOURI...

CITY           SKY/WX    TMP DP  RH WIND       PRES   REMARKS
ST LOUIS INTL  MOCLDY    81  71  71 CALM      30.06R
SPIRIT OF STL  MOCLDY    75  73  93 CALM      30.04R
ST CHARLES     CLOUDY    76  72  87 CALM      30.04R

$$
MOZ072>076-082>087-097>100-106>115-210500-
...SOUTH CENTRAL AND SOUTHEAST MISSOURI...

CITY           SKY/WX    TMP DP  RH WIND       PRES   REMARKS
CAPE GIRARDEAU PTCLDY    72  68  87 E5        30.08R
FARMINGTON     MOCLDY    75  72  90 SE5       30.09R
POPLAR BLUFF   CLOUDY    75  72  90 SE5       30.08R
WEST PLAINS    MOCLDY    76  71  85 S5        30.11F

$$



USA.gov is the U.S. government's official web portal to all federal, state and local government web resources and services.